FW9995 Weather Reports


time (UTC)temp
F
wind
direction
speed
knots
gust
knots
rain 1hr
in
rain 24hr
in
rain mn
in
humidity
%
barometer
mb
20260906231546 99 118 0.0 8.7 0.00 0.00 0.00 42 1011.2
20260906231028 99 94 1.7 9.6 0.00 0.00 0.00 42 1011.2
20260906230530 99 173 2.6 9.6 0.00 0.00 0.00 41 1011.2
20260906230050 99 122 1.7 7.0 0.00 0.00 0.00 41 1011.2
20260906225528 99 128 2.6 7.0 0.00 0.00 0.00 40 1011.1
20260906225030 100 128 0.9 7.0 0.00 0.00 0.00 41 1011.2
20260906224545 100 111 2.6 7.0 0.00 0.00 0.00 40 1011.2
20260906224028 100 130 0.9 7.8 0.00 0.00 0.00 41 1011.2
20260906223530 100 124 1.7 9.6 0.00 0.00 0.00 41 1011.4
20260906223044 100 82 1.7 9.6 0.00 0.00 0.00 40 1011.3
20260906222528 100 0 0.0 7.8 0.00 0.00 0.00 41 1011.3
20260906222030 100 223 2.6 7.8 0.00 0.00 0.00 41 1011.3
20260906221556 100 188 1.7 7.0 0.00 0.00 0.00 40 1011.3
20260906221030 100 264 0.9 12.2 0.00 0.00 0.00 40 1011.3
20260906220533 100 308 2.6 12.2 0.00 0.00 0.00 40 1011.2
20260906220042 100 119 2.6 7.8 0.00 0.00 0.00 40 1011.2
20260906215531 100 160 2.6 7.8 0.00 0.00 0.00 40 1011.2
20260906215031 100 146 0.9 8.7 0.00 0.00 0.00 40 1011.3
20260906214549 100 86 1.7 8.7 0.00 0.00 0.00 40 1011.3
20260906214028 100 123 3.5 7.8 0.00 0.00 0.00 40 1011.3
20260906213531 100 51 1.7 7.0 0.00 0.00 0.00 40 1011.4
20260906213044 100 80 1.7 9.6 0.00 0.00 0.00 40 1011.4
20260906212527 100 202 2.6 9.6 0.00 0.00 0.00 39 1011.5
20260906212031 101 116 1.7 7.8 0.00 0.00 0.00 40 1011.6
20260906211545 101 126 0.9 5.2 0.00 0.00 0.00 40 1011.7
20260906211029 101 107 1.7 7.8 0.00 0.00 0.00 39 1011.8
20260906210531 101 279 0.9 8.7 0.00 0.00 0.00 41 1011.9
20260906210044 100 81 1.7 8.7 0.00 0.00 0.00 41 1011.9
20260906205528 100 161 1.7 7.8 0.00 0.00 0.00 42 1012.0
20260906205030 99 79 3.5 7.8 0.00 0.00 0.00 40 1012.1
20260906204600 100 41 1.7 7.8 0.00 0.00 0.00 40 1012.3
20260906204027 99 145 2.6 9.6 0.00 0.00 0.00 42 1012.3
20260906203529 99 225 1.7 9.6 0.00 0.00 0.00 41 1012.4
20260906203049 99 128 3.5 7.8 0.00 0.00 0.00 41 1012.4
20260906202531 100 169 1.7 8.7 0.00 0.00 0.00 42 1012.4
20260906202028 99 144 1.7 9.6 0.00 0.00 0.00 42 1012.5
20260906201600 99 105 3.5 9.6 0.00 0.00 0.00 42 1012.6
20260906201029 99 113 2.6 10.4 0.00 0.00 0.00 42 1012.7
20260906200530 99 153 2.6 10.4 0.00 0.00 0.00 43 1012.7
20260906200043 99 123 0.9 8.7 0.00 0.00 0.00 43 1012.7
20260906195529 99 76 1.7 8.7 0.00 0.00 0.00 43 1012.8
20260906195027 98 141 2.6 9.6 0.00 0.00 0.00 43 1012.9
20260906194542 99 167 3.5 9.6 0.00 0.00 0.00 43 1013.0
20260906194028 98 136 1.7 7.0 0.00 0.00 0.00 43 1012.9
20260906193528 98 217 3.5 10.4 0.00 0.00 0.00 45 1012.9
20260906193050 98 84 2.6 10.4 0.00 0.00 0.00 44 1013.0
20260906192528 98 216 2.6 7.8 0.00 0.00 0.00 45 1012.9
20260906192028 98 190 2.6 7.0 0.00 0.00 0.00 46 1013.0
20260906191548 98 111 1.7 9.6 0.00 0.00 0.00 46 1013.3
20260906191029 98 107 1.7 9.6 0.00 0.00 0.00 47 1013.2
20260906190528 98 130 2.6 7.0 0.00 0.00 0.00 46 1013.3
20260906190047 97 167 1.7 5.2 0.00 0.00 0.00 47 1013.5
20260906185528 98 167 1.7 7.8 0.00 0.00 0.00 46 1013.5
20260906185031 98 0 2.6 9.6 0.00 0.00 0.00 46 1013.5
20260906184544 97 38 1.7 9.6 0.00 0.00 0.00 47 1013.5
20260906184028 97 117 4.3 9.6 0.00 0.00 0.00 47 1013.5
20260906183531 97 163 3.5 9.6 0.00 0.00 0.00 48 1013.5
20260906183053 97 90 4.3 9.6 0.00 0.00 0.00 47 1013.7
20260906182527 97 111 2.6 8.7 0.00 0.00 0.00 48 1013.7
20260906182030 97 109 2.6 11.3 0.00 0.00 0.00 48 1013.8
20260906181552 96 0 1.7 11.3 0.00 0.00 0.00 49 1013.8
20260906181031 96 108 3.5 11.3 0.00 0.00 0.00 48 1014.0
20260906180534 97 155 1.7 8.7 0.00 0.00 0.00 48 1014.2
20260906180059 96 91 2.6 8.7 0.00 0.00 0.00 48 1014.1
20260906175529 96 129 1.7 7.8 0.00 0.00 0.00 49 1014.2
20260906175028 96 143 2.6 9.6 0.00 0.00 0.00 48 1014.2
20260906174545 96 0 2.6 9.6 0.00 0.00 0.00 49 1014.3
20260906174028 96 142 1.7 7.0 0.00 0.00 0.00 50 1014.3
20260906173530 95 148 0.9 7.8 0.00 0.00 0.00 50 1014.4
20260906173048 95 79 1.7 8.7 0.00 0.00 0.00 50 1014.6
20260906172530 95 131 1.7 8.7 0.00 0.00 0.00 50 1014.8
20260906172030 95 153 3.5 8.7 0.00 0.00 0.00 49 1014.9
20260906171549 95 166 2.6 7.0 0.00 0.00 0.00 50 1014.9
20260906171033 95 198 2.6 7.0 0.00 0.00 0.00 52 1015.0
20260906170528 95 115 1.7 7.8 0.00 0.00 0.00 51 1015.0
20260906170043 94 151 0.9 7.8 0.00 0.00 0.00 54 1014.9
20260906165529 94 152 2.6 6.1 0.00 0.00 0.00 53 1015.0
20260906165028 94 38 0.9 7.8 0.00 0.00 0.00 53 1015.0
20260906164551 94 61 1.7 7.8 0.00 0.00 0.00 54 1015.1
20260906164028 94 213 1.7 7.0 0.00 0.00 0.00 54 1015.1
20260906163528 93 175 1.7 7.8 0.00 0.00 0.00 54 1015.1
20260906163051 93 67 1.7 7.8 0.00 0.00 0.00 55 1015.1
20260906162532 93 144 0.9 7.8 0.00 0.00 0.00 56 1015.1
20260906162027 93 130 1.7 7.8 0.00 0.00 0.00 56 1014.9
20260906161549 93 100 2.6 7.8 0.00 0.00 0.00 56 1014.9
20260906161028 92 207 2.6 7.8 0.00 0.00 0.00 56 1014.8
20260906160528 92 145 1.7 7.0 0.00 0.00 0.00 58 1014.8
20260906160045 92 143 2.6 7.0 0.00 0.00 0.00 57 1014.8
20260906155529 92 0 0.9 4.3 0.00 0.00 0.00 60 1014.8
20260906155027 91 0 0.9 5.2 0.00 0.00 0.00 60 1014.9
20260906154549 91 28 0.9 7.0 0.00 0.00 0.00 58 1014.7
20260906154027 90 65 0.9 7.0 0.00 0.00 0.00 62 1014.8
20260906153527 90 72 1.7 6.1 0.00 0.00 0.00 62 1014.7
20260906153056 90 175 0.9 4.3 0.00 0.00 0.00 63 1014.6
20260906152531 90 0 0.9 6.1 0.00 0.00 0.00 64 1014.6
20260906152027 90 51 1.7 6.1 0.00 0.00 0.00 65 1014.5
20260906151548 89 0 0.0 6.1 0.00 0.00 0.00 66 1014.5
20260906151030 89 121 0.0 6.1 0.00 0.00 0.00 67 1014.5
20260906150531 88 31 0.9 3.5 0.00 0.00 0.00 67 1014.4
20260906150054 88 0 0.0 3.5 0.00 0.00 0.00 68 1014.5
20260906145528 87 98 0.9 3.5 0.00 0.00 0.00 68 1014.4
20260906145031 87 138 0.9 3.5 0.00 0.00 0.00 69 1014.5
20260906144543 87 101 0.9 3.5 0.00 0.00 0.00 69 1014.6
20260906144027 86 0 0.9 3.5 0.00 0.00 0.00 70 1014.4
20260906143528 86 0 0.9 2.6 0.00 0.00 0.00 71 1014.5
20260906143048 86 68 0.9 3.5 0.00 0.00 0.00 71 1014.5
20260906142534 85 128 0.9 3.5 0.00 0.00 0.00 72 1014.6
20260906142031 85 360 0.9 3.5 0.00 0.00 0.00 73 1014.5
20260906141558 84 140 1.7 3.5 0.00 0.00 0.00 73 1014.4
20260906141028 84 360 0.9 3.5 0.00 0.00 0.00 75 1014.4
20260906140528 84 0 0.9 2.6 0.00 0.00 0.00 75 1014.5
20260906140053 83 360 0.9 2.6 0.00 0.00 0.00 76 1014.5
20260906135528 83 360 0.0 2.6 0.00 0.00 0.00 77 1014.4
20260906135027 82 0 0.9 2.6 0.00 0.00 0.00 78 1014.3
20260906134543 82 360 0.0 2.6 0.00 0.00 0.00 79 1014.3
20260906134028 81 0 0.0 1.7 0.00 0.00 0.00 81 1014.2
20260906133527 81 0 0.0 2.6 0.00 0.00 0.00 82 1014.2
20260906133052 80 0 0.9 2.6 0.00 0.00 0.00 82 1014.2
20260906132527 80 360 0.9 2.6 0.00 0.00 0.00 83 1014.3
20260906132028 79 0 0.0 1.7 0.00 0.00 0.00 84 1014.4
20260906131555 79 0 0.0 1.7 0.00 0.00 0.00 85 1014.4
20260906131028 78 360 0.0 1.7 0.00 0.00 0.00 86 1014.2
20260906130531 78 0 0.0 0.9 0.00 0.00 0.00 86 1014.1
20260906130055 78 0 0.0 0.9 0.00 0.00 0.00 85 1014.1
20260906125528 77 0 0.0 0.0 0.00 0.00 0.00 85 1014.2
20260906125027 77 0 0.0 0.0 0.00 0.00 0.00 85 1014.1
20260906124544 77 0 0.0 0.0 0.00 0.00 0.00 85 1014.2
20260906124031 77 0 0.0 0.0 0.00 0.00 0.00 85 1014.3
20260906123529 77 0 0.0 0.0 0.00 0.00 0.00 84 1014.2
20260906123059 77 0 0.0 0.0 0.00 0.00 0.00 84 1014.2
20260906122531 77 0 0.0 0.0 0.00 0.00 0.00 84 1014.1
20260906122030 77 0 0.0 0.0 0.00 0.00 0.00 84 1014.0
20260906121551 77 0 0.0 0.0 0.00 0.00 0.00 84 1013.9
20260906121029 77 0 0.0 0.0 0.00 0.00 0.00 84 1014.0
20260906120531 77 0 0.0 0.0 0.00 0.00 0.00 84 1013.8
20260906120107 77 0 0.0 0.9 0.00 0.00 0.00 83 1013.7
20260906115530 77 0 0.0 0.9 0.00 0.00 0.00 83 1013.8
20260906115028 77 0 0.0 0.0 0.00 0.00 0.00 83 1013.8
20260906114553 77 0 0.0 0.0 0.00 0.00 0.00 83 1013.7
20260906114031 77 0 0.0 0.0 0.00 0.00 0.00 83 1013.6
20260906113528 77 0 0.0 0.0 0.00 0.00 0.00 82 1013.7
20260906113052 78 0 0.0 0.0 0.00 0.00 0.00 82 1013.6
20260906112528 78 0 0.0 0.0 0.00 0.00 0.00 82 1013.5
20260906112031 78 0 0.0 0.0 0.00 0.00 0.00 82 1013.6
20260906111555 78 0 0.0 0.0 0.00 0.00 0.00 82 1013.4
20260906111031 78 0 0.0 0.0 0.00 0.00 0.00 82 1013.5
20260906110531 78 0 0.0 0.0 0.00 0.00 0.00 82 1013.5
20260906110049 78 0 0.0 0.0 0.00 0.00 0.00 82 1013.4
20260906105528 78 0 0.0 0.0 0.00 0.00 0.00 82 1013.5
20260906105033 78 0 0.0 0.0 0.00 0.00 0.00 81 1013.3
20260906104546 78 0 0.0 0.0 0.00 0.00 0.00 81 1013.2
20260906104031 78 0 0.0 0.0 0.00 0.00 0.00 81 1013.1
20260906103527 78 0 0.0 0.0 0.00 0.00 0.00 81 1013.2
20260906103048 78 0 0.0 0.0 0.00 0.00 0.00 81 1013.2
20260906102533 79 0 0.0 0.0 0.00 0.00 0.00 81 1013.2
20260906102028 79 0 0.0 0.0 0.00 0.00 0.00 81 1013.0
20260906101544 79 0 0.0 0.0 0.00 0.00 0.00 81 1013.0
20260906101032 79 0 0.0 0.0 0.00 0.00 0.00 81 1012.9
20260906100533 79 0 0.0 0.0 0.00 0.00 0.00 81 1012.9
20260906100057 79 0 0.0 0.0 0.00 0.00 0.00 80 1012.9
20260906095529 79 0 0.0 0.0 0.00 0.00 0.00 80 1013.0
20260906095030 79 0 0.0 0.0 0.00 0.00 0.00 80 1012.9
20260906094550 79 0 0.0 0.0 0.00 0.00 0.00 80 1012.9
20260906094028 79 0 0.0 0.0 0.00 0.00 0.00 79 1012.8
20260906093529 79 0 0.0 0.0 0.00 0.00 0.00 79 1012.8
20260906093043 80 0 0.0 0.0 0.00 0.00 0.00 79 1012.7
20260906092529 80 0 0.0 0.0 0.00 0.00 0.00 79 1012.7
20260906092031 80 0 0.0 0.0 0.00 0.00 0.00 79 1012.6
20260906091550 80 0 0.0 0.9 0.00 0.00 0.00 79 1012.5
20260906091030 80 0 0.0 0.9 0.00 0.00 0.00 79 1012.5
20260906090529 80 0 0.0 1.7 0.00 0.00 0.00 79 1012.4
20260906090055 80 157 0.0 1.7 0.00 0.00 0.00 79 1012.5
20260906085529 80 0 0.0 2.6 0.00 0.00 0.00 79 1012.5
20260906085029 80 360 0.0 2.6 0.00 0.00 0.00 79 1012.5
20260906084545 80 360 0.9 2.6 0.00 0.00 0.00 79 1012.6
20260906084029 80 360 0.9 2.6 0.00 0.00 0.00 78 1012.5
20260906083530 80 360 0.0 2.6 0.00 0.00 0.00 78 1012.5
20260906083043 80 360 0.0 3.5 0.00 0.00 0.00 78 1012.5
20260906082528 81 0 0.0 3.5 0.00 0.00 0.00 78 1012.5
20260906082032 81 0 0.9 3.5 0.00 0.00 0.00 78 1012.5
20260906081554 81 360 0.0 2.6 0.00 0.00 0.00 77 1012.4
20260906081030 81 360 0.0 1.7 0.00 0.00 0.00 77 1012.6
20260906080530 81 0 0.0 1.7 0.00 0.00 0.00 77 1012.7
20260906080055 81 0 0.0 1.7 0.00 0.00 0.00 76 1012.7
20260906075528 81 0 0.0 3.5 0.00 0.00 0.00 76 1012.8
20260906075028 81 0 0.0 3.5 0.00 0.00 0.00 76 1012.8
20260906074552 81 0 0.9 3.5 0.00 0.00 0.00 76 1012.8
20260906074028 81 360 0.0 2.6 0.00 0.00 0.00 76 1012.8
20260906073528 82 0 0.0 2.6 0.00 0.00 0.00 75 1012.8
20260906073043 82 0 0.0 1.7 0.00 0.00 0.00 75 1012.8
20260906072532 82 170 0.0 1.7 0.00 0.00 0.00 75 1012.8
20260906072028 82 0 0.0 1.7 0.00 0.00 0.00 74 1012.7
20260906071553 82 0 0.0 2.6 0.00 0.00 0.00 74 1012.7
20260906071029 82 0 0.0 3.5 0.00 0.00 0.00 74 1012.8
20260906070530 82 0 0.9 3.5 0.00 0.00 0.00 74 1012.9
20260906070051 82 171 0.9 2.6 0.00 0.00 0.00 74 1013.0
20260906065528 82 199 0.9 2.6 0.00 0.00 0.00 73 1012.9
20260906065029 82 196 0.0 3.5 0.00 0.00 0.00 73 1012.9
20260906064548 82 196 0.9 3.5 0.00 0.00 0.00 73 1013.1
20260906064028 82 144 0.9 3.5 0.00 0.00 0.00 73 1013.1
20260906063530 83 173 0.0 3.5 0.00 0.00 0.00 72 1013.1
20260906063046 83 0 0.9 4.3 0.00 0.00 0.00 72 1012.9
20260906062527 83 187 0.9 4.3 0.00 0.00 0.00 72 1012.9
20260906062029 83 0 0.0 4.3 0.00 0.00 0.00 71 1012.9
20260906061555 83 211 1.7 5.2 0.00 0.00 0.00 71 1013.0
20260906061028 83 170 1.7 5.2 0.00 0.00 0.00 71 1013.0
20260906060529 83 159 1.7 5.2 0.00 0.00 0.00 70 1013.1
20260906060053 83 146 0.9 5.2 0.00 0.00 0.00 70 1013.0
20260906055528 83 188 1.7 3.5 0.00 0.00 0.00 70 1013.0
20260906055028 83 148 0.9 4.3 0.00 0.00 0.00 69 1012.9
20260906054603 84 152 0.9 4.3 0.00 0.00 0.00 69 1012.9
20260906054028 84 150 0.9 3.5 0.00 0.00 0.00 68 1013.1
20260906053528 84 0 0.9 3.5 0.00 0.00 0.00 68 1013.0
20260906053042 84 0 0.9 3.5 0.00 0.00 0.00 68 1012.9
20260906052529 84 165 0.9 3.5 0.00 0.00 0.00 68 1012.9
20260906052032 84 157 0.0 5.2 0.00 0.00 0.00 67 1012.8
20260906051550 84 198 1.7 5.2 0.00 0.00 0.00 67 1012.8
20260906051032 84 180 1.7 3.5 0.00 0.00 0.00 67 1012.8
20260906050531 84 0 0.9 3.5 0.00 0.00 0.00 67 1012.9
20260906050049 84 161 0.9 3.5 0.00 0.00 0.00 67 1012.8
20260906045532 85 194 0.0 6.1 0.00 0.00 0.00 67 1012.8
20260906045028 85 0 0.9 6.1 0.00 0.00 0.00 66 1012.8
20260906044546 85 142 2.6 6.1 0.00 0.00 0.00 66 1012.8
20260906044031 85 179 0.9 5.2 0.00 0.00 0.00 67 1012.9
20260906043531 85 146 0.9 5.2 0.00 0.00 0.00 67 1012.9
20260906043043 85 192 0.9 6.1 0.00 0.00 0.00 66 1012.9
20260906042527 85 192 1.7 7.8 0.00 0.00 0.00 66 1012.9
20260906042028 85 251 1.7 7.8 0.00 0.00 0.00 66 1013.0
20260906041542 85 155 1.7 6.1 0.00 0.00 0.00 66 1013.0
20260906041028 85 203 0.9 5.2 0.00 0.00 0.00 66 1012.9
20260906040531 85 163 0.9 5.2 0.00 0.00 0.00 66 1013.0
20260906035531 85 184 0.9 5.2 0.00 0.00 0.00 66 1013.0
20260906035031 86 212 0.9 5.2 0.00 0.00 0.00 66 1013.0
20260906034551 86 198 0.9 5.2 0.00 0.00 0.00 65 1013.0
20260906034031 86 140 1.7 5.2 0.00 0.00 0.00 65 1013.0
20260906033530 86 149 0.9 5.2 0.00 0.00 0.00 65 1013.0
20260906033044 86 237 1.7 5.2 0.00 0.00 0.00 65 1012.9
20260906032528 86 195 0.9 3.5 0.00 0.00 0.00 64 1012.9
20260906032034 86 169 0.9 6.1 0.00 0.00 0.00 64 1012.9
20260906031608 86 186 1.7 6.1 0.00 0.00 0.00 64 1013.0
20260906031034 87 244 1.7 5.2 0.00 0.00 0.00 63 1013.0
20260906030532 87 128 0.9 7.0 0.00 0.00 0.00 64 1013.1
20260906030050 87 169 1.7 7.0 0.00 0.00 0.00 63 1013.0
20260906025528 87 120 0.9 7.0 0.00 0.00 0.00 63 1013.0
20260906025032 87 138 1.7 6.1 0.00 0.00 0.00 63 1013.1
20260906024556 87 209 1.7 7.8 0.00 0.00 0.00 62 1013.0
20260906024031 87 201 2.6 7.8 0.00 0.00 0.00 62 1012.9
20260906023530 87 169 1.7 7.8 0.00 0.00 0.00 62 1012.8
20260906023046 87 117 0.9 7.8 0.00 0.00 0.00 61 1012.7
20260906022528 87 117 1.7 7.8 0.00 0.00 0.00 61 1012.7
20260906022029 87 100 1.7 7.0 0.00 0.00 0.00 61 1012.7
20260906021542 87 91 0.9 6.1 0.00 0.00 0.00 61 1012.6
20260906021029 87 0 0.9 5.2 0.00 0.00 0.00 60 1012.5
20260906020531 88 164 0.9 5.2 0.00 0.00 0.00 60 1012.4
20260906020048 88 124 0.9 7.8 0.00 0.00 0.00 60 1012.3
20260906015530 88 126 1.7 7.8 0.00 0.00 0.00 60 1012.3
20260906015032 88 193 1.7 7.8 0.00 0.00 0.00 59 1012.3
20260906014544 88 101 1.7 8.7 0.00 0.00 0.00 59 1012.2
20260906014029 89 186 2.6 8.7 0.00 0.00 0.00 58 1012.3
20260906013529 89 150 0.9 8.7 0.00 0.00 0.00 57 1012.2
20260906013043 89 95 2.6 7.0 0.00 0.00 0.00 57 1012.1
20260906012528 90 120 2.6 8.7 0.00 0.00 0.00 56 1011.9
20260906012028 90 81 2.6 10.4 0.00 0.00 0.00 55 1011.8
20260906011551 91 136 3.5 10.4 0.00 0.00 0.00 54 1011.5
20260906011030 91 163 3.5 14.8 0.00 0.00 0.00 53 1011.6
20260906010529 92 208 3.5 14.8 0.00 0.00 0.00 52 1011.4
20260906010052 92 158 5.2 13.9 0.00 0.00 0.00 51 1011.4
20260906005530 93 203 3.5 9.6 0.00 0.00 0.00 51 1011.3
20260906005029 94 198 0.9 9.6 0.00 0.00 0.00 50 1011.3
20260906004543 94 360 2.6 10.4 0.00 0.00 0.00 49 1011.2
20260906004032 95 360 3.5 10.4 0.00 0.00 0.00 48 1011.2
20260906003528 95 360 1.7 7.0 0.00 0.00 0.00 45 1011.2
20260906003049 96 360 0.0 5.2 0.00 0.00 0.00 45 1011.1
20260906002531 96 117 0.9 6.1 0.00 0.00 0.00 45 1011.2
20260906002028 96 139 0.9 6.1 0.00 0.00 0.00 45 1011.1
20260906001549 97 155 1.7 7.0 0.00 0.00 0.00 44 1011.2
20260906001028 97 157 1.7 7.8 0.00 0.00 0.00 43 1011.1
20260906000529 97 57 1.7 8.7 0.00 0.00 0.00 42 1011.0
20260906000054 98 142 1.7 8.7 0.00 0.00 0.00 42 1011.1
20260905235529 98 60 2.6 9.6 0.00 0.00 0.00 42 1011.1
20260905235031 98 136 0.9 9.6 0.00 0.00 0.00 42 1011.0
20260905234550 98 167 0.9 7.0 0.00 0.00 0.00 41 1010.8
20260905234031 98 0 0.9 7.0 0.00 0.00 0.00 40 1010.9
20260905233530 98 105 0.9 7.0 0.00 0.00 0.00 40 1011.0
20260905233053 99 156 2.6 7.0 0.00 0.00 0.00 39 1011.0
20260905232528 99 159 0.9 7.0 0.00 0.00 0.00 40 1010.9
20260905232028 99 157 1.7 7.0 0.00 0.00 0.00 39 1010.9